Location: Oshawa
(43.9000°N, 78.8670°W)
Time: 07:20:25
(UTC-04:00)

Daily predictions for brighter satellites

Satellite Brightness Start Highest point End
(mag) Time Altitude Azimuth Time Altitude Azimuth Time Altitude Azimuth
Lacrosse 5 rocket 2.0 20:26:17 10° NW 20:29:50 37° NNE 20:33:14 10° ESE
H-2A R/B 4.0 20:30:41 10° E 20:32:26 12° ENE 20:34:11 10° NE
Cosmos 1892 Rocket 3.6 20:28:09 10° N 20:32:39 73° E 20:37:07 10° SSE
Cosmos 1315 Rocket 3.3 20:28:46 10° SSW 20:32:44 66° WNW 20:36:48 10° N
ERS-1 Rocket 4.0 20:29:07 10° ESE 20:33:19 28° ENE 20:37:32 10° N
ALOS 2.3 20:28:59 10° SSE 20:33:38 71° ENE 20:38:19 10° N
Cosmos 1025 Rocket 3.5 20:29:37 10° NNW 20:33:58 68° W 20:38:16 10° S
Cosmos 1455 Rocket 3.2 20:35:22 10° S 20:39:33 51° E 20:43:47 10° NNE
H-2A R/B 2.8 20:36:03 10° SSE 20:39:54 65° ENE 20:43:48 10° N
Cosmos 2369 4.1 20:34:38 10° S 20:39:54 41° ESE 20:45:14 10° NE
Resurs 1-3 4.3 20:35:42 10° S 20:40:00 58° W 20:44:22 10° NNW
Cosmos 1461 3.0 20:36:34 10° NNW 20:40:37 56° NE 20:44:31 10° SE
NOSS 2-1 (E) 3.4 20:37:25 10° SW 20:41:20 86° SE 20:45:56 10° NE
Meteor 1-23 Rocket 4.4 20:36:16 10° NNW 20:41:55 80° W 20:47:37 10° S
Cosmos 1602 Rocket 4.4 20:38:05 10° N 20:42:10 33° ENE 20:46:11 10° SE
Meteor 1-29 4.3 20:39:20 10° N 20:42:38 45° WNW 20:45:57 10° SW
Cosmos 1980 Rocket 3.9 20:45:22 10° ESE 20:47:07 11° E 20:48:51 10° ENE
Cosmos 1633 4.2 20:48:53 10° SSW 20:52:19 38° WNW 20:55:46 10° N
Cosmos 1939 Rocket 3.9 20:51:41 11° SE 20:55:03 30° ENE 20:58:43 10° N
Lacrosse 5 2.9 20:51:20 10° NW 20:55:58 34° NNE 21:00:15 12° E
CZ-2D R/B 3.6 20:52:49 10° S 20:56:41 71° W 21:00:34 10° NNW
Resurs 01 Rocket 3.7 20:53:19 10° SSW 20:57:12 30° W 21:01:07 10° NW
Cosmos 1934 Rocket 4.0 20:51:23 10° S 20:57:31 90° NW 21:03:47 10° N
ATLAS CENTAUR R/B 4.1 20:55:39 10° W 20:59:56 27° NW 21:04:08 10° NNE
Cosmos 2084 4.3 20:59:15 10° NNW 21:02:58 34° NE 21:05:46 16° ESE
USA 215 4.3 20:58:20 10° E 21:04:09 36° NNE 21:09:59 10° NW
SPOT 5 4.1 21:02:07 15° ESE 21:05:17 26° ENE 21:09:18 10° N
Cosmos 220 Rocket 4.1 21:02:27 10° NNW 21:06:37 53° ENE 21:09:49 16° SE
Cosmos 1346 Rocket 3.3 21:06:01 10° NNW 21:09:54 59° W 21:13:48 10° S
EP 1 4.0 21:08:05 10° SSW 21:10:34 80° SE 21:13:13 10° NE
Cosmos 2227 Rocket 2.3 21:06:50 10° NNW 21:12:32 80° WSW 21:18:10 10° SSE
USA 186 2.7 21:11:38 10° S 21:14:37 43° W 21:17:28 10° NNW
Tiangong 1 0.9 21:11:43 10° W 21:14:49 72° S 21:16:25 25° E
FENGYUN 3A 4.4 21:10:04 10° S 21:15:16 52° W 21:20:31 10° NNW
OTV 4 2.2 21:13:33 10° WSW 21:15:51 20° SSW 21:16:45 18° SSE
NOSS 7 (D) 4.4 21:13:11 10° SW 21:16:36 83° NW 21:20:02 10° NE
Cosmos 2208 Rocket 4.3 21:13:38 10° SSW 21:18:56 73° WNW 21:24:21 10° NNE
NOSS 3-4 (A) 4.3 21:13:34 10° NW 21:20:26 58° WSW 21:27:42 10° SSE
NOSS 3-4 (C) 4.3 21:13:41 10° NW 21:20:34 59° WSW 21:27:49 10° SSE
RESURS DK-1 3.5 21:16:57 10° N 21:20:36 29° NE 21:22:21 21° E
Cosmos 1656 3.8 21:15:47 10° S 21:21:11 51° ESE 21:26:34 10° NE
Cosmos 1500 3.5 21:18:30 15° SSE 21:21:19 43° E 21:24:55 10° NNE
BREEZE-M TANK 3.5 21:09:06 10° WNW 21:22:24 84° SSW 21:24:54 23° ESE
Cosmos 2298 Rocket 4.1 21:19:32 10° NNW 21:24:50 64° ENE 21:28:25 21° SE
Cosmos 2082 4.0 21:20:22 10° NNW 21:25:57 67° WSW 21:31:16 11° SSE
Cosmos 2297 Rocket 2.2 21:22:31 10° NNW 21:28:13 83° WSW 21:32:48 16° SSE
CZ-4 DEB 2.9 21:26:40 18° S 21:28:54 72° W 21:32:03 10° NNW
Cosmos 1340 3.7 21:31:08 10° NNE 21:34:28 28° ENE 21:34:56 28° E
Envisat 2.9 21:34:13 18° SSE 21:37:58 80° ENE 21:43:05 10° N
Cosmos 2173 Rocket 4.1 21:32:58 11° SSE 21:39:00 54° E 21:45:10 10° NNE
H-2A R/B 3.7 21:39:12 15° ENE 21:40:14 16° ENE 21:43:14 10° NNE
Cosmos 1937 Rocket 3.6 21:35:58 10° NNW 21:41:10 58° ENE 21:43:40 30° SE
Cosmos 1726 Rocket 4.5 21:42:19 28° E 21:42:20 28° E 21:46:06 10° NNE
Cosmos 1515 3.8 21:38:42 10° NNW 21:42:34 73° W 21:44:56 22° S
ASTEX 1 3.9 21:40:14 10° NNE 21:44:57 40° E 21:46:25 33° SE
Terra 3.8 21:44:43 14° ENE 21:45:21 14° ENE 21:47:48 10° NNE
OAO 2 Rocket 4.3 21:43:36 10° SW 21:47:56 29° S 21:48:32 28° SSE
Cosmos 2100 Rocket 3.9 21:43:05 10° S 21:49:19 71° E 21:55:33 10° NNE
YAOGAN 6 3.0 21:49:35 43° E 21:49:56 45° ENE 21:53:29 10° N
Cosmos 2061 Rocket 4.0 21:44:13 12° S 21:50:09 66° E 21:56:21 10° NNE
Cosmos 2150 Rocket 3.9 21:46:32 10° NNW 21:51:43 87° WSW 21:54:21 30° SSE
Iridium 4 Rocket 4.0 21:46:46 10° N 21:51:51 56° W 21:56:28 10° SSW
Cosmos 1743 2.7 21:53:16 49° SE 21:54:00 60° E 21:57:53 10° NNE
Cosmos 1825 Rocket 3.5 21:49:42 10° N 21:54:07 63° E 21:55:22 43° SE
Cosmos 972 Rocket 4.4 21:49:52 10° NNW 21:55:44 83° ENE 21:59:20 28° SSE
Cosmos 990 Rocket 4.1 21:51:50 10° NNW 21:57:03 59° ENE 21:58:46 39° SE
MetOp-A 4.1 21:55:01 33° SSE 21:57:28 70° ENE 22:02:48 10° N
Cosmos 1975 4.2 21:54:45 10° SSW 21:58:38 41° WNW 22:02:32 10° N
SPOT 1/Viking Rocket 3.9 21:57:13 37° ESE 21:58:45 47° ENE 22:03:45 10° N
DELTA 2 R/B (1) 4.1 21:53:36 10° W 21:58:51 44° SSW 22:00:24 35° SSE
Cosmos 1066 Rocket 4.4 21:53:48 10° NNW 21:59:26 75° W 22:03:26 21° S
Cosmos 1953 Rocket 3.7 21:58:39 10° N 22:03:03 58° E 22:03:44 51° ESE
CZ-4B R/B 4.2 21:59:30 10° NNE 22:03:04 31° E 22:03:04 31° E
H-2A R/B 2.2 22:06:31 39° S 22:07:55 66° WSW 22:12:02 10° NNW
Cosmos 1697 Rocket 2.6 22:02:23 10° SSW 22:08:03 89° ESE 22:13:44 10° NNE
Lacrosse 5 rocket 2.4 22:05:45 10° WNW 22:08:56 27° SW 22:09:24 27° SW
ERS-1 Rocket 4.2 22:07:44 12° SSW 22:11:56 38° W 22:16:37 10° NNW
SL-16 R/B 4.0 22:15:31 16° ENE 22:15:31 16° ENE 22:17:13 10° NE
Cosmos 1842 3.8 22:10:16 10° N 22:13:32 45° NE 22:13:32 45° NE
deb Chang Zheng 4 3.9 22:10:56 10° N 22:15:24 69° WNW 22:18:17 21° SSW
NOAA 11 4.2 22:15:11 47° SE 22:16:35 64° ENE 22:22:00 10° N
Cosmos 1898 Rocket 4.2 22:11:29 10° NNW 22:16:36 51° WSW 22:19:08 28° SSW
Cosmos 1758 Rocket 3.3 22:17:47 10° N 22:22:11 79° E 22:22:20 77° ESE
Cosmos 1125 Rocket 4.0 22:17:53 10° N 22:22:49 41° ENE 22:23:14 41° ENE
Cosmos 1725 Rocket 4.0 22:22:45 47° SE 22:24:16 60° E 22:30:24 10° NNE
Cosmos 1763 Rocket 3.3 22:24:17 61° SSE 22:24:56 69° ESE 22:30:00 10° NNE
Cosmos 1459 Rocket 4.3 22:21:24 11° SSW 22:27:12 64° W 22:33:16 10° N
Cosmos 2228 4.1 22:29:02 32° NE 22:29:02 32° NE 22:31:39 10° NNE
Cosmos 1980 Rocket 2.1 22:26:51 26° SSW 22:30:09 83° ESE 22:35:53 10° NNE
Meteor 1-15 Rocket 4.3 22:30:17 55° SE 22:30:59 59° E 22:36:45 10° NNE
ARGOS 3.0 22:30:52 60° SSE 22:31:54 84° ENE 22:37:19 10° NNW
BREEZE-M DEB (TANK) 4.3 22:29:41 10° WNW 22:34:00 87° SSW 22:38:48 36° ESE
Lacrosse 5 2.0 22:34:12 10° NW 22:39:11 59° SW 22:39:26 58° SW
SPOT 5 4.0 22:41:21 30° SW 22:43:10 40° W 22:47:46 10° NNW
Cosmos 2058 Rocket 3.2 22:44:37 76° NNW 22:44:37 76° NNW 22:48:54 10° N
Cosmos 841 Rocket 3.4 22:45:04 72° SSW 22:45:38 89° WNW 22:50:53 10° NNE
Cosmos 1666 3.9 22:47:18 40° N 22:47:18 40° N 22:49:51 10° N
USA 215 3.2 22:44:53 52° ESE 22:46:38 79° NE 22:53:11 10° NW
Meteor 2-17 Rocket 4.4 22:48:05 58° E 22:48:05 58° E 22:53:59 10° NNE
BREEZE-M DEB (TANK) 4.2 22:37:03 10° SW 22:49:08 58° SSE 22:49:08 58° SSE
Tiangong 1 4.2 22:48:11 10° W 22:48:24 11° W 22:48:24 11° W
Cosmos 2233 Rocket 4.0 22:51:56 60° E 22:51:59 60° E 22:58:07 10° NNE
Cosmos 2263 Rocket 2.8 22:53:06 10° NNW 22:58:15 41° NE 22:58:15 41° NE
RESURS DK-1 4.1 22:55:05 10° NW 22:58:17 26° W 22:58:17 26° W
Cosmos 2322 Rocket 2.9 23:03:22 40° NE 23:03:22 40° NE 23:07:06 10° NNE
CZ-4C R/B 4.3 23:05:10 52° N 23:05:10 52° N 23:08:33 10° NNW
SL-08 RB Rocket 4.4 23:07:24 50° W 23:07:24 50° W 23:11:38 10° NNW
Landsat 7 4.1 23:07:46 63° NW 23:07:46 63° NW 23:11:53 10° NNW
Cosmos 2360 4.3 23:06:40 55° SW 23:07:50 72° WNW 23:13:35 10° NNE
CZ-4 R/B 4.3 23:10:22 10° N 23:14:27 58° NNW 23:14:27 58° NNW
Cosmos 372 Rocket 4.4 23:12:18 10° NNW 23:16:28 57° N 23:16:28 57° N
BREEZE-M DEB (TANK) 3.5 23:01:52 10° WNW 23:18:17 88° SSW 23:18:46 78° SE
H-2A R/B 2.4 23:19:51 59° NW 23:19:51 59° NW 23:24:04 10° NNW
Terra 2.5 23:23:37 51° NNW 23:23:37 51° NNW 23:27:15 10° NNW
GEOS 3 Rocket 4.0 23:25:31 10° NNE 23:30:26 60° NW 23:30:26 60° NW
Cosmos 1464 Rocket 4.4 23:34:51 52° NE 23:34:51 52° NE 23:39:58 10° NNE
Cosmos 2278 Rocket 4.5 23:38:11 10° NNE 23:40:58 14° NE 23:42:08 13° NE
BREEZE-M DEB (TANK) 4.4 23:43:47 10° W 23:48:16 32° W 23:48:16 32° W
